Weather History for KAXH - July, 2013

Change the Weather History Date:

Wednesday, July 31, 2013

  Actual Average (KHOU) Record (KHOU)
Temperature  
Mean Temperature 82 °F 85 °F  
Max Temperature 96 °F 95 °F 103 °F (1998)
Min Temperature 68 °F 75 °F 67 °F (1936)
Cooling Degree Days 17 20  
Month to date cooling degree days 601  
Year to date cooling degree days 1773  
Since 1 June cooling degree days 1121  
Growing Degree Days 32 (Base 50)    
Moisture  
Dew Point 71 °F    
Average Humidity 72    
Maximum Humidity 100    
Minimum Humidity 32    
Precipitation  
Precipitation 0.00 in 0.09 in 3.91 in (2014)
Month to date precipitation 3.79  
Year to date precipitation 28.11  
Sea Level Pressure  
Sea Level Pressure 30.04 in    
Wind  
Wind Speed 2 mph (South)    
Max Wind Speed 14 mph    
Max Gust Speed 20 mph    
Visibility 7 miles    
Events Fog    
T = Trace of Precipitation, MM = Missing Value Source: NWS Daily Summary

Daily Weather History Graph

Daily Weather History Graph

Search for Another Location

Airport or City:

Trip Planner

Search our weather history database for the weather conditions in past years. The results will help you decide how hot, cold, wet, or windy it might be!

Date:

Astronomy

Jul. 31, 2013 Rise Set
Actual Time 6:41 AM CDT 8:14 PM CDT
Civil Twilight 6:15 AM CDT 8:40 PM CDT
Nautical Twilight 5:44 AM CDT 9:11 PM CDT
Astronomical Twilight 5:12 AM CDT 9:43 PM CDT
Moon 1:37 AM CDT (7/31) 3:30 PM CDT (7/31)
Length of Visible Light 14h 24m
Length of Day
13h 33m
Waning Crescent, 31% of the Moon is Illuminated
Jul 31
Waning Crescent
Aug 6
New
Aug 14
First Quarter
Aug 20
Full
Aug 28
Last Quarter

Hourly Weather History & Observations

Time (CDT) Temp. Heat Index Dew Point Humidity Pressure Visibility Wind Dir Wind Speed Gust Speed Precip Events Conditions
12:15 AM 72.9 °F - 72.7 °F 99% 30.09 in 4.0 mi Calm Calm - N/A   Scattered Clouds
12:35 AM 71.6 °F - 71.6 °F 100% 30.08 in 0.5 mi Calm Calm - N/A Fog Fog
12:55 AM 71.1 °F - 71.1 °F 100% 30.08 in 2.0 mi Calm Calm - N/A   Clear
1:55 AM 70.0 °F - 70.0 °F 100% 30.08 in 0.2 mi Calm Calm - N/A Fog Fog
2:15 AM 69.3 °F - 69.3 °F 100% 30.07 in 0.2 mi Calm Calm - N/A Fog Fog
2:35 AM 70.2 °F - 70.2 °F 100% 30.07 in 0.2 mi Calm Calm - N/A Fog Fog
2:55 AM 70.5 °F - 70.5 °F 100% 30.07 in 0.2 mi Calm Calm - N/A Fog Fog
3:15 AM 70.0 °F - 70.0 °F 100% 30.07 in 0.2 mi Calm Calm - N/A Fog Fog
3:35 AM 72.0 °F - 72.0 °F 100% 30.08 in 0.2 mi Calm Calm - N/A Fog Fog
3:55 AM 71.6 °F - 71.6 °F 100% 30.07 in 5.0 mi Calm Calm - N/A   Scattered Clouds
4:15 AM 70.9 °F - 70.9 °F 100% 30.07 in 1.5 mi Calm Calm - N/A   Mist
4:35 AM 70.2 °F - 70.2 °F 100% 30.07 in 0.5 mi Calm Calm - N/A Fog Fog
4:55 AM 69.1 °F - 69.1 °F 100% 30.07 in 0.2 mi Calm Calm - N/A Fog Fog
5:15 AM 68.9 °F - 68.9 °F 100% 30.06 in 1.5 mi Calm Calm - N/A   Scattered Clouds
5:35 AM 69.3 °F - 69.3 °F 100% 30.06 in 0.5 mi Calm Calm - N/A Fog Fog
5:55 AM 68.9 °F - 68.9 °F 100% 30.07 in 0.2 mi Calm Calm - N/A Fog Fog
6:15 AM 69.8 °F - 69.8 °F 100% 30.08 in 0.2 mi Calm Calm - N/A Fog Fog
6:35 AM 68.9 °F - 68.9 °F 100% 30.09 in 0.2 mi Calm Calm - N/A Fog Fog
6:55 AM 68.4 °F - 68.4 °F 100% 30.09 in 0.2 mi Calm Calm - N/A Fog Fog
7:15 AM 69.8 °F - 69.8 °F 100% 30.09 in 0.5 mi Calm Calm - N/A Fog Fog
7:35 AM 72.0 °F - 72.0 °F 100% 30.10 in 7.0 mi Calm Calm - N/A   Clear
7:55 AM 73.6 °F - 73.6 °F 100% 30.10 in 7.0 mi Calm Calm - N/A   Clear
8:15 AM 74.8 °F - 74.8 °F 100% 30.10 in 7.0 mi Calm Calm - N/A   Clear
8:35 AM 76.8 °F - 76.8 °F 100% 30.11 in 10.0 mi Calm Calm - N/A   Clear
8:55 AM 79.7 °F - 77.4 °F 93% 30.11 in 10.0 mi SSW 3.5 mph - N/A   Clear
9:15 AM 82.0 °F 90.2 °F 77.2 °F 85% 30.11 in 10.0 mi SSW 4.6 mph - N/A   Clear
9:35 AM 84.2 °F 91.9 °F 74.7 °F 73% 30.11 in 10.0 mi SSW 3.5 mph - N/A   Scattered Clouds
9:55 AM 85.1 °F 92.6 °F 73.9 °F 69% 30.11 in 10.0 mi SSW 5.8 mph - N/A   Scattered Clouds
10:15 AM 86.7 °F 94.6 °F 73.6 °F 65% 30.11 in 10.0 mi SW 6.9 mph - N/A   Mostly Cloudy
10:35 AM 86.2 °F 93.4 °F 73.0 °F 65% 30.11 in 10.0 mi SW 8.1 mph - N/A   Scattered Clouds
10:55 AM 88.3 °F 95.4 °F 72.5 °F 59% 30.10 in 10.0 mi SW 6.9 mph - N/A   Scattered Clouds
11:15 AM 89.8 °F 97.5 °F 72.9 °F 57% 30.09 in 10.0 mi SSW 5.8 mph - N/A   Scattered Clouds
11:35 AM 89.1 °F 96.0 °F 72.0 °F 57% 30.09 in 10.0 mi SW 6.9 mph - N/A   Scattered Clouds
11:55 AM 90.5 °F 97.0 °F 71.2 °F 53% 30.08 in 10.0 mi SSW 6.9 mph - N/A   Clear
12:15 PM 90.3 °F 96.2 °F 70.3 °F 52% 30.08 in 10.0 mi SSW 5.8 mph - N/A   Scattered Clouds
12:35 PM 91.4 °F 96.8 °F 69.8 °F 49% 30.07 in 10.0 mi WSW 6.9 mph - N/A   Scattered Clouds
12:55 PM 92.3 °F 98.1 °F 70.2 °F 48% 30.06 in 10.0 mi West 5.8 mph - N/A   Clear
1:15 PM 91.2 °F 95.5 °F 68.5 °F 47% 30.06 in 10.0 mi Calm Calm - N/A   Clear
1:35 PM 93.6 °F 97.9 °F 68.0 °F 43% 30.05 in 10.0 mi SSW 3.5 mph - N/A   Clear
1:55 PM 95.0 °F 99.5 °F 68.0 °F 41% 30.04 in 10.0 mi Calm Calm - N/A   Clear
2:15 PM 94.5 °F 99.1 °F 68.4 °F 42% 30.03 in 10.0 mi Calm Calm - N/A   Clear
2:35 PM 94.5 °F 98.5 °F 67.5 °F 41% 30.03 in 10.0 mi Calm Calm - N/A   Clear
2:55 PM 95.4 °F 99.1 °F 67.1 °F 39% 30.02 in 10.0 mi Calm Calm - N/A   Clear
3:15 PM 95.4 °F 97.6 °F 64.8 °F 36% 30.01 in 10.0 mi Calm Calm - N/A   Clear
3:35 PM 95.9 °F 98.0 °F 64.4 °F 35% 30.01 in 10.0 mi Calm Calm - N/A   Scattered Clouds
3:55 PM 96.4 °F 98.4 °F 64.0 °F 34% 30.01 in 10.0 mi NW 4.6 mph - N/A   Scattered Clouds
4:15 PM 96.6 °F 97.7 °F 62.2 °F 32% 30.00 in 10.0 mi Calm Calm - N/A   Clear
4:35 PM 96.8 °F 99.0 °F 63.9 °F 34% 29.99 in 10.0 mi South 3.5 mph - N/A   Clear
4:55 PM 96.4 °F 99.4 °F 65.1 °F 36% 29.98 in 10.0 mi ESE 3.5 mph - N/A   Clear
5:15 PM 96.3 °F 100.2 °F 66.7 °F 38% 29.98 in 10.0 mi East 8.1 mph - N/A   Scattered Clouds
5:35 PM 93.7 °F 105.0 °F 74.7 °F 54% 29.97 in 10.0 mi ESE 12.7 mph 17.3 mph N/A   Clear
5:55 PM 93.7 °F 103.6 °F 73.9 °F 52% 29.96 in 10.0 mi ESE 13.8 mph 18.4 mph N/A   Clear
6:15 PM 92.7 °F 101.7 °F 73.0 °F 53% 29.96 in 10.0 mi SE 11.5 mph 17.3 mph N/A   Clear
6:35 PM 92.5 °F 100.1 °F 71.8 °F 51% 29.96 in 10.0 mi SE 10.4 mph - N/A   Clear
6:55 PM 90.9 °F 97.8 °F 71.4 °F 53% 29.96 in 10.0 mi SSE 11.5 mph 19.6 mph N/A   Clear
7:15 PM 89.4 °F 95.3 °F 70.9 °F 54% 29.96 in 10.0 mi SE 6.9 mph 16.1 mph N/A   Clear
7:35 PM 88.0 °F 93.8 °F 70.9 °F 57% 29.96 in 10.0 mi SE 10.4 mph - N/A   Clear
7:55 PM 86.0 °F 90.7 °F 70.3 °F 59% 29.97 in 10.0 mi SE 6.9 mph 16.1 mph N/A   Clear
8:15 PM 84.4 °F 89.0 °F 70.7 °F 63% 29.97 in 10.0 mi SSE 5.8 mph - N/A   Clear
8:35 PM 83.1 °F 87.3 °F 70.2 °F 65% 29.98 in 10.0 mi SSE 5.8 mph - N/A   Clear
8:55 PM 82.2 °F 86.0 °F 69.8 °F 66% 29.98 in 10.0 mi SSE 4.6 mph - N/A   Clear
9:15 PM 81.1 °F 84.7 °F 70.0 °F 69% 29.98 in 10.0 mi SSE 5.8 mph - N/A   Clear
9:35 PM 80.6 °F 83.9 °F 70.2 °F 70% 29.99 in 10.0 mi SSE 5.8 mph - N/A   Clear
9:55 PM 79.7 °F - 70.9 °F 74% 30.00 in 10.0 mi SE 3.5 mph - N/A   Clear
10:15 PM 78.8 °F - 71.2 °F 78% 30.00 in 10.0 mi SSE 3.5 mph - N/A   Clear
10:35 PM 77.9 °F - 71.4 °F 80% 30.01 in 10.0 mi Calm Calm - N/A   Clear
10:55 PM 77.2 °F - 71.8 °F 83% 30.01 in 10.0 mi SSE 3.5 mph - N/A   Clear
11:15 PM 76.8 °F - 72.3 °F 86% 30.01 in 10.0 mi SSE 3.5 mph - N/A   Clear
11:35 PM 76.5 °F - 73.6 °F 91% 30.01 in 10.0 mi Calm Calm - N/A   Clear
11:55 PM 76.1 °F - 73.8 °F 92% 30.01 in 10.0 mi Calm Calm - N/A   Clear